Regional Weather Roundup
Issued by NWS

Home | Current Version | Previous Version | Text Only | Print | Product List | Glossary On
Versions: 1 2 3 4 5 6 7 8 9 10 11 12 13 14 15 16 17 18 19 20 21 22 23 24 25 26 27 28 29 30 31 32 33 34 35 36 37 38 39 40 41 42 43 44 45 46 47 48 49 50
000
ASUS42 KFFC 261610
RWRGA
WEATHER ROUNDUP FOR GEORGIA
NATIONAL WEATHER SERVICE PEACHTREE CITY GA
1200 PM EDT THU APR 26 2018

NOTE: "FAIR" INDICATES FEW OR NO CLOUDS BELOW 12,000 FEET WITH NO
SIGNIFICANT WEATHER AND/OR OBSTRUCTIONS TO VISIBILITY.

* = USE WITH CAUTION. THE STATIONS MARKED WITH AN ASTERISK MAY NOT
REPORT WEATHER SUCH AS PRECIPITATION, FOG, OR THUNDER AND ARE NOT
QUALITY CONTROLLED BY NWS.

THE REMARK "TC" DENOTES TEMPERATURE READING IN DEGREES CELSIUS.

GAZ001>058-261700-
NORTH GEORGIA

CITY           SKY/WX    TMP DP  RH WIND       PRES   REMARKS
ATLANTA        LGT RAIN  60  53  77 NW3       29.90F
ATHENS         CLOUDY    66  53  63 CALM      29.90S
CHAMBLEE       PTSUNNY   61  52  72 N6        29.90F
PEACHTREE CITY PTSUNNY   62  52  69 CALM      29.91F
ROME           LGT RAIN  55  55 100 N3        29.93R FOG
WEST ATLANTA   CLOUDY    60  53  77 NE5       29.90F
GAINESVILLE    CLOUDY    62  50  64 NE3       29.92F
CARTERSVILLE   LGT RAIN  53  53 100 N3        29.93S FOG


CITY           SKY/WX    TMP DP  RH WIND       PRES   REMARKS
DALTON*        LGT RAIN  54  54 100 N3        29.95S
LAWRENCEVILLE* PTSUNNY   66  50  55 MISG      29.90F
MARIETTA       DRIZZLE   59  50  72 N3        29.90F
KENNESAW*      LGT RAIN  57  51  80 CALM      29.92F
CANTON*        DRIZZLE   59  52  77 NE6       29.91F
BLAIRSVILLE*   RAIN      52  50  93 CALM      29.95S FOG
$$

GAZ059>098-102>109-261700-
CENTRAL GEORGIA

CITY           SKY/WX    TMP DP  RH WIND       PRES   REMARKS
AUGUSTA-BUSH   FAIR      70  56  61 SW7       29.88S
AUGUSTA-DANIEL FAIR      70  56  61 S9        29.89S
COLUMBUS       FAIR      70  55  59 VRB6      29.88F
MACON          FAIR      67  54  63 VRB6      29.91R
ROBINS AFB     PTSUNNY   69  52  53 W8        29.90S


CITY           SKY/WX    TMP DP  RH WIND       PRES   REMARKS
LAGRANGE*      CLOUDY    61  60  94 CALM      29.89S
SYLVANIA*      FAIR      72  56  57 W5        29.89S
MILLEDGEVILLE* FAIR      64  55  72 CALM      29.90F
$$

GAZ099>101-110>166-261700-
SOUTH GEORGIA

CITY           SKY/WX    TMP DP  RH WIND       PRES   REMARKS
SAVANNAH       PTSUNNY   74  54  49 SW10      29.89S
VALDOSTA       FAIR      76  56  49 W6        29.91S
ALMA           FAIR      75  54  47 SW8       29.90R
ST SIMONS      FAIR      73  56  54 SE8       29.90S
FT STEWART     FAIR      74  54  49 W8        29.87F
ALBANY         FAIR      70  56  61 W8        29.93S
HUNTER AFB     FAIR      74  55  50 SW10      29.86F
MOODY AFB      FAIR      75  56  50 SW13      29.90R
BRUNSWICK      FAIR      75  54  46 SW12      29.91S


CITY           SKY/WX    TMP DP  RH WIND       PRES   REMARKS
BAINBRIDGE*      N/A     72  59  64 S8        29.91F
MOULTRIE*      FAIR      72  55  56 W7        29.92F
VIDALIA*       FAIR      72  50  46 W7G16     29.91R
WAYCROSS*      FAIR      76  53  44 W10       29.90S
DOUGLAS*       FAIR      73  54  49 SW8       29.92S
$$




USA.gov is the U.S. government's official web portal to all federal, state and local government web resources and services.